TimeCDT,TemperatureF,Dew PointF,Humidity,Sea Level PressureIn,VisibilityMPH,Wind Direction,Wind SpeedMPH,Gust SpeedMPH,PrecipitationIn,Events,Conditions,WindDirDegrees,DateUTC
12:54 AM,39.0,28.9,67,29.87,7.0,NW,12.7,19.6,0.00,Rain,Light Rain,310,2013-04-25 05:54:00
1:49 AM,35.6,33.8,93,29.83,10.0,NW,5.8,-,0.00,,Overcast,320,2013-04-25 06:49:00
1:54 AM,35.1,33.1,92,29.86,10.0,NNW,4.6,-,0.00,,Overcast,330,2013-04-25 06:54:00
2:04 AM,35.6,33.8,93,29.83,6.0,NNW,5.8,-,0.00,Snow,Light Snow,330,2013-04-25 07:04:00
2:14 AM,33.8,32.0,93,29.82,1.8,NNW,4.6,-,0.00,Snow,Light Snow,330,2013-04-25 07:14:00
2:20 AM,33.8,32.0,93,29.83,1.2,NW,3.5,-,0.01,Snow,Light Snow,310,2013-04-25 07:20:00
2:30 AM,33.8,32.0,93,29.83,0.5,WNW,3.5,-,0.04,Fog-Snow,Snow,300,2013-04-25 07:30:00
2:54 AM,33.1,32.0,96,29.87,0.5,NW,9.2,-,0.12,Fog-Snow,Snow,310,2013-04-25 07:54:00
3:14 AM,33.8,32.0,93,29.83,1.0,NW,4.6,-,0.03,Snow,Light Snow,320,2013-04-25 08:14:00
3:25 AM,33.8,32.0,93,29.83,1.2,NW,5.8,-,0.03,Snow,Light Snow,310,2013-04-25 08:25:00
3:35 AM,33.8,32.0,93,29.83,1.2,NW,5.8,-,0.03,Snow,Light Snow,310,2013-04-25 08:35:00
3:45 AM,33.8,32.0,93,29.84,2.0,WNW,4.6,-,0.03,Snow,Light Snow,300,2013-04-25 08:45:00
3:54 AM,33.1,32.0,96,29.87,5.0,WNW,4.6,-,0.03,Snow,Light Snow,300,2013-04-25 08:54:00
4:37 AM,33.8,32.0,93,29.85,10.0,WNW,8.1,-,0.00,,Overcast,290,2013-04-25 09:37:00
4:54 AM,34.0,30.9,89,29.88,10.0,WNW,9.2,-,0.00,,Overcast,300,2013-04-25 09:54:00
5:21 AM,33.8,30.2,87,29.87,10.0,WNW,9.2,-,N/A,,Overcast,300,2013-04-25 10:21:00
5:54 AM,33.1,30.9,92,29.91,10.0,NW,10.4,-,N/A,,Overcast,310,2013-04-25 10:54:00
6:54 AM,33.1,28.9,85,29.95,10.0,NW,10.4,-,N/A,,Overcast,310,2013-04-25 11:54:00
7:54 AM,33.1,30.0,89,29.99,10.0,NW,9.2,-,N/A,,Overcast,310,2013-04-25 12:54:00
8:54 AM,35.1,30.0,82,30.02,10.0,NW,10.4,-,N/A,,Mostly Cloudy,320,2013-04-25 13:54:00
9:54 AM,37.0,30.9,79,30.05,10.0,WNW,9.2,-,N/A,,Mostly Cloudy,300,2013-04-25 14:54:00
10:14 AM,39.2,30.2,70,30.02,10.0,WNW,15.0,21.9,N/A,,Scattered Clouds,290,2013-04-25 15:14:00
10:54 AM,42.1,30.9,65,30.07,10.0,NW,13.8,20.7,N/A,,Mostly Cloudy,310,2013-04-25 15:54:00
11:54 AM,43.0,25.0,49,30.08,10.0,WNW,13.8,24.2,N/A,,Mostly Cloudy,300,2013-04-25 16:54:00
12:54 PM,45.0,23.0,42,30.10,10.0,WNW,16.1,20.7,N/A,,Overcast,300,2013-04-25 17:54:00
1:54 PM,48.0,23.0,37,30.11,10.0,West,8.1,-,N/A,,Mostly Cloudy,260,2013-04-25 18:54:00
2:54 PM,46.9,21.9,37,30.12,10.0,West,11.5,18.4,N/A,,Mostly Cloudy,270,2013-04-25 19:54:00
3:54 PM,48.9,21.0,33,30.13,10.0,West,9.2,-,N/A,,Mostly Cloudy,270,2013-04-25 20:54:00
4:54 PM,48.9,19.0,31,30.13,10.0,WNW,6.9,-,N/A,,Overcast,300,2013-04-25 21:54:00
5:54 PM,50.0,18.0,28,30.14,10.0,WSW,8.1,-,N/A,,Mostly Cloudy,240,2013-04-25 22:54:00
6:54 PM,48.0,16.0,28,30.16,10.0,West,5.8,-,N/A,,Scattered Clouds,270,2013-04-25 23:54:00
7:54 PM,44.1,19.0,37,30.17,10.0,SSW,3.5,-,N/A,,Clear,210,2013-04-26 00:54:00
8:54 PM,42.1,19.9,41,30.19,10.0,SW,5.8,-,N/A,,Clear,220,2013-04-26 01:54:00
9:54 PM,39.9,23.0,51,30.22,10.0,SSW,6.9,-,N/A,,Clear,210,2013-04-26 02:54:00
10:54 PM,37.9,24.1,57,30.22,10.0,SW,4.6,-,N/A,,Clear,230,2013-04-26 03:54:00
11:54 PM,36.0,24.1,62,30.23,10.0,SW,3.5,-,N/A,,Clear,220,2013-04-26 04:54:00